Startseite
Über Mich
AHP4
Galerie
Sehschlangen
Tourenbuch
Bookmarks
Elektronik
Bewertung
Geschichten
[Tagesmessung] [Jahreswerte] [Information]

Messwerte vom 05.04.2022

Die letzten Messwerte von 23:58:47 Uhr:
KategorieMesswert
Temperatur [°C]9
Luftdruck [mBar]986
Sonneneinstrahlung0
Wind [km/h]4 aus Südwest
Niederschlag [l/m²]0
rel.Luftfeucht.96.6%
CO2 [ppm]695

Diagramme
Messwerte vom 05.04.2022
Tagesaggregation
KategorieMinimumMaximumSchnittSumme
Temperatur [°C]4107.4104
Luftdruck [mBar]983988985.8896
Sonneneinstrahlung232106.7896
Wind [km/h]28
rF [%]79.896.694.48
Niederschlag [l/m²]4.3775
CO2 [ppm]603818713.3
Einordnung alsVegetationstag

Messungen an benachbarten Tagen: Zur Jahresaggregation 2022
Tabelle aller Messwerte
UhrzeitTemperatur [°C]Luftdruck [mBar]SonneWind [km/h]RichtungRegen [l/m²]rF [%]CO2 [ppm]
00:01:47 6 984 0 3 NO 0 96.6 784
00:04:48 6 984 0 8 SW 0 96.6 785
00:07:46 6 984 0 4 W 0 96.6 779
00:10:47 6 984 0 4 NW 0 96.6 783
00:13:45 6 984 0 7 S 0 96.6 781
00:16:46 6 984 0 7 S 0 96.6 782
00:19:49 6 983 0 7 SO 0 96.6 780
00:22:48 6 984 0 4 S 0 96.6 782
00:25:47 6 984 0 2 SO 0 96.6 790
00:28:47 6 984 0 5 S 0 96.6 796
00:31:46 6 984 0 8 W 0 96.6 793
00:34:45 6 984 0 6 W 0.2575 96.6 782
00:37:44 6 984 0 7 S 0 96.6 779
00:40:45 6 984 0 4 N 0 96.6 788
00:43:47 6 984 0 6 W 0 96.6 796
00:46:45 6 984 0 7 O 0 96.6 796
00:49:47 6 984 0 4 SO 0 96.6 790
00:52:46 6 984 0 6 S 0 96.6 794
00:55:45 6 984 0 5 S 0 96.6 795
00:58:47 6 984 0 1 NW 0 96.6 795
01:01:46 6 983 0 3 SO 0 96.6 788
01:04:48 6 984 0 4 SO 0 96.6 787
01:07:47 6 984 0 1 SW 0 96.6 801
01:10:46 6 984 0 7 W 0 96.6 808
01:13:47 6 984 0 12 SO 0 96.6 799
01:16:45 6 984 0 8 W 0 96.6 791
01:19:44 6 984 0 5 W 0 96.6 787
01:22:44 6 984 0 1 O 0 96.6 796
01:25:46 6 984 0 10 W 0 96.6 794
01:28:46 6 984 0 9 SW 0 96.6 791
01:31:46 6 984 0 12 W 0 96.6 787
01:34:45 6 984 0 7 N 0 96.6 788
01:37:46 6 984 0 7 NW 0.2575 96.6 788
01:40:47 6 984 0 19 W 0 96.6 788
01:43:49 6 984 0 19 SW 0 96.6 780
01:46:46 6 984 0 4 S 0 96.6 775
01:49:46 6 984 0 5 NW 0 96.6 782
01:52:50 6 984 0 9 SW 0 96.6 788
01:55:47 6 984 0 8 W 0 96.6 790
01:58:47 6 984 0 9 SW 0 96.6 779
02:01:44 6 984 0 14 W 0 96.6 779
02:04:49 6 984 0 12 W 0 96.6 776
02:07:46 6 984 0 7 W 0.2575 96.6 775
02:10:47 6 984 0 16 S 0 96.6 769
02:13:47 6 984 0 8 W 0 96.6 771
02:16:47 6 984 0 6 NW 0 96.6 767
02:19:46 6 984 0 2 O 0 96.6 779
02:22:47 6 984 0 7 SO 0 96.6 779
02:25:47 6 984 0 3 NW 0 96.6 782
02:28:45 6 984 0 8 W 0 96.6 782
02:31:48 6 984 0 9 NW 0 96.6 779
02:34:47 6 984 0 11 SW 0 96.6 782
02:37:46 6 984 0 9 SW 0 96.6 775
02:40:48 6 984 0 2 SO 0 96.6 759
02:43:45 6 984 0 8 S 0.2575 96.6 762
02:46:49 6 984 0 23 SW 0 96.6 775
02:49:45 6 984 0 5 W 0 96.6 782
02:52:48 6 984 0 1 SW 0 96.6 779
02:55:47 6 984 0 8 W 0 96.6 767
02:58:48 6 984 0 10 NW 0 96.6 773
03:01:46 6 984 0 3 W 0 96.6 769
03:04:45 6 984 0 4 S 0 96.6 776
03:07:46 6 984 0 17 O 0.2575 96.6 773
03:10:47 6 984 0 3 NW 0 96.6 780
03:13:47 6 984 0 10 NO 0 96.6 776
03:16:46 6 984 0 9 SW 0 96.6 773
03:19:47 6 984 0 6 NW 0 96.6 774
03:22:46 6 984 0 7 SW 0 96.6 771
03:25:46 6 984 0 5 SW 0 96.6 771
03:28:46 6 984 0 9 SW 0 96.6 759
03:31:45 6 984 0 4 W 0 96.6 767
03:34:46 6 984 0 3 SW 0 96.6 769
03:37:46 6 984 0 2 SW 0.2575 96.6 770
03:40:47 6 984 0 5 SW 0 96.6 771
03:43:47 6 984 0 7 S 0 96.6 769
03:46:46 6 984 0 5 S 0 96.6 764
03:49:46 6 984 0 9 W 0.2575 96.6 765
03:52:45 6 984 0 8 W 0 96.6 767
03:55:45 6 984 0 11 S 0 96.6 764
03:58:47 6 984 0 16 NW 0 96.6 763
04:01:45 6 984 0 8 W 0 96.6 746
04:04:46 6 984 0 13 SO 0 96.6 744
04:07:47 6 984 0 15 NW 0 96.6 751
04:10:48 6 984 0 14 NW 0 96.6 758
04:13:47 6 984 0 5 S 0.2575 96.6 755
04:16:45 6 984 0 10 S 0 96.6 753
04:19:45 6 984 0 3 S 0 96.6 755
04:22:46 6 984 0 7 SW 0 96.6 757
04:25:47 6 984 0 13 W 0 96.6 762
04:28:45 5 984 0 10 W 0 96.6 763
04:31:46 5 984 0 9 NW 0 96.6 766
04:34:46 5 984 0 10 W 0 96.6 766
04:37:46 5 984 0 11 W 0 96.6 762
04:40:46 5 984 0 7 NW 0 96.6 759
04:43:47 5 984 0 28 S 0 96.6 756
04:46:45 5 984 0 5 S 0 96.6 756
04:49:46 5 984 0 8 SW 0 96.6 744
04:52:44 5 984 0 9 SO 0 96.6 744
04:55:47 5 984 0 10 S 0 96.6 749
04:58:46 5 984 0 6 W 0 96.6 755
05:01:46 5 984 0 6 NO 0 96.6 753
05:04:46 5 984 0 1 N 0 96.6 749
05:07:47 5 984 0 11 SW 0 96.6 756
05:10:47 5 984 0 5 SW 0 96.6 764
05:13:46 5 984 0 2 SW 0 96.6 761
05:16:49 5 984 0 7 SW 0 96.6 766
05:19:45 5 984 0 4 W 0 96.6 757
05:22:48 5 984 0 7 S 0.2575 96.6 759
05:25:47 5 984 0 2 W 0 96.6 753
05:28:48 5 984 0 13 NW 0 96.6 757
05:31:47 5 984 0 6 SW 0 96.6 758
05:34:46 5 984 0 6 NW 0 96.6 764
05:37:49 5 984 0 3 S 0 96.6 763
05:40:46 5 984 0 4 SW 0 96.6 764
05:43:47 5 984 0 7 SW 0 96.6 767
05:46:47 5 984 0 6 W 0 96.6 762
05:49:46 5 984 0 5 W 0 96.6 760
05:52:45 5 984 0 8 W 0 96.6 757
05:55:48 5 985 0 6 W 0 96.6 757
05:58:46 5 984 0 6 NW 0 96.6 750
06:01:47 5 984 0 9 SW 0 96.6 751
06:04:47 5 985 0 2 NW 0 96.6 759
06:07:46 5 984 0 3 S 0 96.6 762
06:10:45 5 984 0 4 W 0 96.6 772
06:13:46 5 984 0 7 W 0 96.6 762
06:16:46 5 985 0 8 W 0 96.6 753
06:19:47 5 985 0 11 NW 0 96.6 753
06:22:45 5 984 3 5 N 0 96.6 754
06:25:45 5 985 3 9 W 0 96.6 755
06:28:47 5 984 6 4 SW 0 96.6 746
06:31:46 5 985 10 3 N 0 96.6 741
06:34:47 5 985 14 8 S 0 96.6 742
06:37:47 5 985 27 3 SW 0 96.6 747
06:40:46 5 985 37 7 NW 0 96.6 743
06:43:46 5 985 46 5 SW 0 96.6 747
06:46:48 5 985 57 11 NW 0 96.6 748
06:49:48 5 985 59 7 SW 0 96.6 761
06:52:47 5 985 58 6 SW 0 96.6 750
06:55:48 5 986 56 10 NW 0 96.6 750
06:58:49 5 986 37 8 SW 0 96.6 747
07:01:46 5 986 70 9 W 0 96.6 741
07:04:49 5 986 57 5 NW 0 96.6 729
07:07:50 5 986 60 12 NW 0 96.6 729
07:10:49 5 986 69 13 N 0 96.6 733
07:13:46 5 986 97 8 O 0 96.6 711
07:16:46 4 986 97 6 SW 0 96.6 721
07:19:47 4 986 103 4 W 0 96.6 733
07:22:47 4 986 135 15 W 0 96.6 750
07:25:46 4 987 143 13 W 0 96.6 738
07:28:47 4 987 130 11 W 0 96.6 741
07:31:46 4 987 123 13 W 0 96.6 737
07:34:48 4 987 124 15 SW 0 96.6 744
07:37:48 4 987 153 12 W 0 96.6 740
07:40:47 4 987 156 9 SW 0 96.6 741
07:43:50 4 987 141 17 NW 0 96.6 729
07:46:47 4 987 152 7 W 0 96.6 721
07:49:47 4 987 156 11 N 0 96.6 721
07:52:47 4 987 169 9 W 0 96.6 729
07:55:49 4 987 163 13 W 0 96.6 733
07:58:46 4 987 165 10 W 0 96.6 731
08:01:47 5 987 172 5 W 0 96.6 735
08:04:46 5 987 177 3 N 0 96.6 736
08:07:49 5 988 180 5 W 0 96.6 745
08:10:48 5 987 185 4 NW 0 96.6 752
08:13:48 5 987 189 5 NW 0 96.6 755
08:16:48 5 987 189 11 NW 0 96.6 757
08:19:48 5 987 192 5 SW 0 96.6 749
08:22:47 5 988 190 4 NW 0 96.6 747
08:25:48 5 987 192 3 NW 0 96.6 750
08:28:49 5 987 197 7 NW 0 96.6 755
08:31:46 5 987 199 4 W 0 96.6 755
08:34:47 5 987 199 3 W 0 96.6 747
08:37:49 5 987 205 8 W 0 96.6 743
08:40:46 5 987 207 4 S 0 96.6 736
08:43:46 5 987 203 4 W 0 96.6 743
08:46:45 6 987 207 5 SW 0 96.6 744
08:49:49 6 987 206 7 W 0 96.2 756
08:52:46 6 988 204 4 W 0 95.7 755
08:55:48 6 987 204 8 W 0 95.8 770
08:58:49 6 987 207 3 W 0 95.4 776
09:01:48 6 987 209 5 SW 0 96 776
09:04:49 6 987 210 5 NW 0 96 767
09:07:48 6 987 211 3 W 0 95.4 761
09:10:50 6 987 211 6 SW 0 94.9 740
09:13:49 6 987 211 3 W 0 94.8 715
09:16:46 6 987 212 3 W 0 94.5 700
09:19:49 6 987 214 6 W 0 94.8 674
09:22:47 7 987 215 9 SW 0 95.1 662
09:25:50 7 987 215 5 SW 0 95.2 658
09:28:48 7 988 214 10 SW 0 95.1 667
09:31:48 7 987 214 5 W 0 94.2 677
09:34:49 7 987 212 5 N 0 93.7 694
09:37:49 7 987 215 11 S 0 93.8 695
09:40:47 7 988 213 1 W 0 94 697
09:43:48 7 987 214 5 SW 0 94.4 697
09:46:49 7 987 215 9 SW 0 93 694
09:49:48 7 987 213 11 W 0 92.2 700
09:52:47 7 987 215 9 W 0 91.9 700
09:55:50 7 987 217 10 S 0 91.9 709
09:58:49 7 987 218 5 NW 0 92 706
10:01:46 7 987 218 4 W 0 91.9 706
10:04:47 8 987 216 18 W 0 92.1 698
10:07:47 8 987 217 12 W 0 89.2 688
10:10:50 8 987 219 11 SW 0 89.2 688
10:13:47 8 987 220 4 W 0 90.9 691
10:16:48 8 987 220 4 S 0 90.8 697
10:19:49 8 987 219 10 W 0 88.2 697
10:22:46 8 988 221 6 SW 0 87.5 706
10:25:48 8 987 212 4 O 0 89.3 702
10:28:47 8 987 218 5 W 0 90.1 701
10:31:46 8 987 220 6 W 0 89.7 703
10:34:47 8 988 221 4 SW 0 89.7 700
10:37:50 8 987 223 9 W 0 90 707
10:40:49 9 987 223 7 W 0 89.1 712
10:43:49 9 987 221 6 SW 0 87.6 714
10:46:49 9 988 220 4 W 0 86.9 711
10:49:48 8 987 219 6 NW 0 86.5 707
10:52:49 8 988 220 7 SW 0 88 706
10:55:50 8 987 218 2 S 0 88.7 710
10:58:49 8 988 220 5 NW 0 88 707
11:01:48 8 988 221 9 NW 0 87.5 712
11:04:47 8 988 217 5 W 0 88.2 714
11:07:50 8 988 215 7 W 0 88 715
11:10:46 8 987 215 2 S 0 87.1 718
11:13:47 8 987 217 1 SW 0 87.8 724
11:16:47 8 987 217 3 SW 0 88.1 724
11:19:47 8 988 215 8 W 0 89 715
11:22:48 8 987 216 3 O 0 89.6 703
11:25:47 8 988 214 3 O 0 88 710
11:28:46 8 987 210 7 W 0 87.5 710
11:31:48 8 987 211 4 SW 0 87.8 706
11:34:48 8 987 215 0 SW 0 88.9 706
11:37:48 8 987 214 13 SW 0 89.2 717
11:40:47 8 988 213 6 W 0 88.9 722
11:43:49 8 988 213 7 SW 0 88 729
11:46:48 8 988 214 6 SW 0 88.9 729
11:49:49 8 988 217 2 W 0 88.9 733
11:52:48 8 987 215 9 SW 0 88.8 733
11:55:49 8 987 215 6 W 0 87.7 738
11:58:47 8 987 218 6 SW 0 86.5 746
12:01:47 8 987 220 8 W 0 86.4 753
12:04:47 8 988 216 6 W 0 86.7 754
12:07:50 8 987 219 2 SW 0 87.1 753
12:10:48 9 988 220 5 SO 0 86.9 755
12:13:47 9 987 226 8 W 0 86.1 762
12:16:46 9 987 225 3 NO 0 85.6 764
12:19:49 9 987 223 0 SO 0 86.3 762
12:22:47 9 987 223 1 W 0 86.3 752
12:25:49 9 987 224 9 NW 0 85 754
12:28:51 9 988 221 6 SW 0 84.5 753
12:31:50 9 988 220 11 NW 0 83.8 759
12:34:50 9 988 223 8 SO 0 83.5 758
12:37:48 9 987 221 13 W 0 83.5 760
12:40:48 9 987 220 6 SW 0 82.9 765
12:43:47 9 988 218 8 SW 0 82.8 775
12:46:51 9 987 217 3 SW 0 82.5 781
12:49:48 9 987 219 2 NW 0 83.4 773
12:52:48 9 987 219 6 W 0 84.4 781
12:55:49 9 988 221 0 SO 0 84.8 782
12:58:48 9 987 223 5 W 0 84.9 789
13:01:48 9 987 221 3 S 0 83.4 788
13:04:47 9 987 223 6 S 0 83.5 779
13:07:49 9 987 217 7 SW 0 83.6 770
13:10:47 9 987 217 3 O 0 82.6 764
13:13:48 9 987 221 1 SW 0 82.6 767
13:16:46 9 987 224 14 W 0 80.5 771
13:19:47 9 987 222 4 S 0 79.8 770
13:22:46 9 988 221 1 N 0 80 777
13:25:47 9 987 225 6 SO 0 80 784
13:28:48 9 987 223 1 SW 0 80.9 790
13:31:48 9 987 223 2 W 0 81.7 800
13:34:48 9 987 217 2 SO 0 82.1 808
13:37:47 9 987 219 2 S 0 81.7 818
13:40:49 9 987 214 3 SO 0 83 612
13:43:48 9 987 212 0 SO 0 83.5 612
13:46:46 9 987 217 7 W 0 84.7 613
13:49:48 9 987 222 1 SO 0 85.8 630
13:52:48 8 987 220 0 N 0 86.8 626
13:55:46 8 987 213 3 S 0.2575 87.8 624
13:58:46 8 987 207 1 S 0 88.4 615
14:01:50 8 987 216 4 NW 0 88.9 620
14:04:47 8 987 218 5 S 0 90.5 621
14:07:49 8 987 219 2 SW 0 92 626
14:10:47 8 987 221 12 S 0 92.6 625
14:13:47 8 987 221 1 S 0 93.1 629
14:16:48 8 987 221 5 SW 0.2575 93.8 626
14:19:48 8 987 219 3 SW 0 94 633
14:22:46 8 987 223 1 SW 0 94.1 623
14:25:48 8 987 228 0 NO 0 94.3 626
14:28:48 9 987 232 4 W 0 95.1 633
14:31:45 9 987 231 2 S 0 95.1 644
14:34:51 9 987 230 3 SW 0 94.5 642
14:37:47 9 987 229 5 SW 0 94.7 647
14:40:48 9 987 229 0 NO 0 95.1 647
14:43:46 9 988 228 4 SW 0 94.7 649
14:46:48 10 987 223 6 SO 0 93.7 651
14:49:48 9 987 213 3 O 0 92.6 645
14:52:49 9 987 221 0 W 0 92.4 639
14:55:45 9 987 225 5 W 0 93.3 641
14:58:49 9 987 222 3 NW 0 93.8 639
15:01:48 9 987 211 9 NW 0 93.8 653
15:04:46 9 987 216 4 SW 0 93.4 647
15:07:47 9 987 218 4 NO 0 92.4 652
15:10:50 9 987 213 3 SW 0 93.7 653
15:13:47 9 987 211 4 SW 0.2575 93.9 646
15:16:48 9 987 211 10 W 0 93.1 639
15:19:48 8 987 215 1 SO 0 93.4 638
15:22:47 9 988 218 1 SW 0 93.9 641
15:25:47 9 987 221 5 W 0 94.7 642
15:28:50 9 987 218 0 W 0 95.2 632
15:31:49 9 987 221 1 SO 0 95.3 633
15:34:50 9 987 225 2 W 0 95.4 630
15:37:48 9 987 222 1 S 0 95.4 630
15:40:48 9 987 222 2 SO 0 95.4 627
15:43:47 9 987 226 3 W 0 95.3 630
15:46:47 9 987 222 3 W 0 94.5 635
15:49:51 9 987 226 4 SW 0 93.9 631
15:52:51 10 987 228 7 NW 0 94 637
15:55:46 10 987 226 2 W 0 94.1 636
15:58:47 10 987 223 0 W 0 93.7 639
16:01:49 10 987 222 1 NW 0 92.8 645
16:04:50 10 987 207 0 NO 0 92.5 647
16:07:49 10 987 206 0 NW 0 92.2 645
16:10:50 9 987 210 2 W 0 92.6 652
16:13:50 9 987 215 5 N 0 92.7 659
16:16:46 9 987 212 1 S 0 93.2 667
16:19:48 9 987 206 2 NO 0 93.4 678
16:22:48 9 987 197 3 SO 0 94.2 685
16:25:47 9 987 182 6 W 0 94.2 690
16:28:49 9 987 189 1 S 0 94.4 695
16:31:52 9 987 196 0 SO 0 95.4 688
16:34:48 8 987 194 2 W 0 96 683
16:37:51 8 987 203 0 SO 0 96.5 680
16:40:47 8 987 206 0 S 0 96.6 672
16:43:48 8 987 215 1 W 0 96.6 672
16:46:49 9 986 204 1 S 0 96.6 669
16:49:51 9 987 205 3 SW 0 96.6 668
16:52:49 9 986 211 1 SW 0 96.6 664
16:55:47 9 987 201 1 O 0 96.6 661
16:58:47 9 987 186 2 S 0 96.6 663
17:01:49 8 987 185 3 SO 0 96.6 670
17:04:49 8 986 195 2 SO 0 96.6 670
17:07:49 8 987 202 0 NW 0 96.6 663
17:10:47 8 987 197 1 W 0 96.6 653
17:13:50 8 987 213 0 SW 0 96.6 646
17:16:46 8 987 215 1 O 0 96.6 659
17:19:47 9 987 203 1 W 0 96.6 665
17:22:47 9 987 210 3 W 0 96.6 668
17:25:50 9 987 217 2 NW 0 96.6 668
17:28:47 9 987 222 2 SW 0 96.6 661
17:31:46 9 987 218 2 S 0 96.6 667
17:34:51 9 986 213 1 SW 0 96.6 663
17:37:47 9 986 207 2 S 0 96.6 664
17:40:48 9 986 220 2 SO 0 96.6 661
17:43:48 9 986 203 3 SW 0 96.6 658
17:46:47 9 986 192 0 O 0 96.6 661
17:49:48 9 988 196 6 S 0 96.6 659
17:52:47 9 987 202 1 S 0 96.6 666
17:55:46 9 986 203 2 O 0 96.6 666
17:58:47 9 986 211 3 N 0 96.6 669
18:01:49 9 986 204 2 NW 0 96.6 668
18:04:51 9 986 196 2 SW 0 96.6 669
18:07:47 9 986 201 1 S 0 96.6 662
18:10:48 9 986 197 2 SO 0 96.6 667
18:13:46 9 986 186 3 W 0 96.6 667
18:16:50 9 987 188 4 SW 0 96.6 668
18:19:47 9 986 187 4 S 0 96.6 671
18:22:47 9 986 183 2 O 0 96.6 671
18:25:47 9 986 190 3 S 0 96.6 679
18:28:46 9 986 197 1 O 0 96.6 680
18:31:48 9 985 199 3 S 0 96.6 685
18:34:49 9 985 196 8 SW 0 96.6 687
18:37:47 9 986 201 3 SW 0 96.6 686
18:40:49 9 986 199 1 SO 0 96.6 676
18:43:48 9 985 199 3 S 0 96.6 680
18:46:47 9 986 190 1 W 0 96.6 677
18:49:47 9 985 187 1 NO 0 96.6 674
18:52:48 9 986 171 1 SO 0 96.6 665
18:55:49 9 985 166 0 SW 0 96.6 669
18:58:48 9 986 161 1 SO 0 96.6 669
19:01:49 9 985 148 2 NW 0 96.6 679
19:04:49 9 985 127 5 SO 0 96.6 686
19:07:48 9 985 102 1 O 0 96.6 682
19:10:48 9 986 106 1 SO 0 96.6 674
19:13:48 9 985 106 2 S 0 96.6 668
19:16:48 9 986 121 1 SO 0.2575 96.6 674
19:19:48 9 985 123 1 S 0 96.6 679
19:22:47 9 986 115 1 SW 0 96.6 685
19:25:49 9 984 109 1 SW 0 96.6 689
19:28:49 9 985 102 2 W 0 96.6 686
19:31:48 8 985 95 0 O 0 96.6 687
19:34:48 8 986 100 2 S 0 96.6 677
19:37:48 8 985 124 1 O 0 96.6 671
19:40:48 8 985 105 1 W 0 96.6 670
19:43:49 8 985 83 1 SO 0 96.6 665
19:46:48 8 985 59 0 S 0 96.6 663
19:49:47 8 985 46 4 W 0 96.6 656
19:52:48 8 985 33 3 SW 0 96.6 648
19:55:46 8 985 24 6 O 0 96.6 629
19:58:46 8 985 19 5 SW 0 96.6 612
20:01:47 8 985 11 3 S 0 96.6 603
20:04:44 8 986 7 3 S 0 96.6 615
20:07:46 8 985 5 1 S 0 96.6 622
20:10:46 8 986 3 4 S 0.2575 96.6 627
20:13:47 8 986 4 3 SW 0 96.6 632
20:16:47 8 985 0 1 SW 0 96.6 644
20:19:47 8 985 0 3 SO 0 96.6 653
20:22:46 8 986 0 4 S 0 96.6 653
20:25:48 9 984 0 5 SW 0 96.6 654
20:28:48 9 986 0 6 W 0 96.6 662
20:31:48 9 986 0 10 W 0.2575 96.6 668
20:34:52 9 985 0 12 SW 0 96.6 669
20:37:49 9 986 0 7 NW 0 96.6 664
20:40:50 9 985 0 7 SW 0 96.6 668
20:43:48 9 985 0 6 W 0 96.6 666
20:46:48 9 986 0 11 W 0 96.6 666
20:49:48 9 986 0 10 W 0 96.6 667
20:52:47 9 985 0 11 SW 0 96.6 674
20:55:48 9 986 0 8 W 0 96.6 669
20:58:49 9 985 0 12 NW 0 96.6 674
21:01:48 9 985 0 5 SO 0 96.6 671
21:04:47 9 986 0 8 W 0 96.6 676
21:07:48 9 986 0 14 SW 0 96.6 672
21:10:50 9 986 0 8 SW 0 96.6 672
21:13:47 9 986 0 4 SW 0 96.6 675
21:16:47 9 986 0 2 SW 0 96.6 668
21:19:47 9 986 0 10 S 0.2575 96.6 671
21:22:50 9 986 0 5 W 0 96.6 669
21:25:49 9 987 0 5 NW 0 96.6 671
21:28:47 9 987 0 1 W 0 96.6 668
21:31:49 9 986 0 15 NW 0 96.6 671
21:34:46 9 987 0 3 O 0 96.6 677
21:37:46 9 986 0 7 W 0 96.6 671
21:40:46 9 986 0 7 SW 0 96.6 671
21:43:47 9 987 0 6 SW 0 96.6 672
21:46:47 9 986 0 7 S 0 96.6 674
21:49:48 9 987 0 9 SO 0 96.6 673
21:52:46 9 986 0 10 W 0 96.6 677
21:55:47 9 987 0 10 SO 0 96.6 672
21:58:48 9 986 0 11 SW 0 96.6 680
22:01:48 9 987 0 10 SW 0 96.6 678
22:04:49 9 986 0 7 W 0 96.6 682
22:07:49 9 986 0 10 W 0 96.6 683
22:10:45 9 986 0 6 W 0 96.6 671
22:13:46 9 986 0 6 W 0 96.6 675
22:16:46 9 986 0 9 NW 0 96.6 673
22:19:48 9 987 0 2 NW 0 96.6 677
22:22:48 9 986 0 6 SW 0 96.6 677
22:25:47 9 986 0 5 W 0 96.6 677
22:28:47 9 987 0 8 SW 0 96.6 670
22:31:47 9 987 0 7 SW 0 96.6 679
22:34:49 9 986 0 3 NW 0 96.6 676
22:37:47 9 986 0 2 NO 0 96.6 676
22:40:47 9 986 0 3 O 0 96.6 685
22:43:49 9 987 0 2 NW 0 96.6 689
22:46:48 9 986 0 2 N 0 96.6 689
22:49:49 9 986 0 1 S 0 96.6 682
22:52:48 9 986 0 2 NO 0 96.6 669
22:55:46 9 986 0 6 S 0 96.6 673
22:58:46 9 987 0 11 O 0 96.6 682
23:01:48 9 986 0 1 SO 0 96.6 677
23:04:48 9 986 0 2 SW 0 96.6 656
23:07:49 9 986 0 13 W 0 96.6 650
23:10:49 9 986 0 3 NW 0 96.6 657
23:13:47 9 986 0 6 SO 0 96.6 674
23:16:46 9 986 0 5 SO 0.2575 96.6 679
23:19:47 9 986 0 13 NW 0 96.6 679
23:22:46 9 986 0 5 SW 0 96.6 677
23:25:48 9 986 0 6 SO 0 96.6 682
23:28:48 9 986 0 8 SW 0 96.6 686
23:31:46 9 986 0 11 W 0 96.6 685
23:34:51 9 986 0 2 NW 0 96.6 686
23:37:48 9 987 0 7 SW 0 96.6 685
23:40:48 9 986 0 8 SW 0 96.6 688
23:43:47 9 986 0 11 S 0 96.6 684
23:46:46 9 986 0 4 NW 0 96.6 689
23:49:47 9 986 0 2 W 0 96.6 692
23:52:48 9 987 0 10 SO 0 96.6 686
23:55:46 9 985 0 4 N 0 96.6 688
23:58:47 9 986 0 4 SW 0 96.6 695

Letzte Änderung : 22-Jul-2022
Copyright Jens Köhler, Wolfsburg, Obere Dorfstraße 10d